Location: Santa Maria di Sala
(45.5070°N, 12.0300°E)
Time: 07:49:14
(UTC+02:00)

STRAND 1 - Pass Details

Date: 29 February 2024
Orbit: 764 x 779 km, 98.4° (Epoch: 16 April)

Event Time Altitude Azimuth Distance (km) Brightness Sun altitude
Rises 18:43:49 0° 14° (NNE) 3,265 ? -8.8°
Reaches altitude 10° 18:46:09 10° 16° (NNE) 2,331 ? -9.2°
Maximum altitude 18:51:18 79° 103° (ESE) 790 ? -10.1°
Drops below altitude 10° 18:56:23 10° 191° (S) 2,304 ? -11.0°
Sets 18:58:41 0° 192° (SSW) 3,224 ? -11.4°
